St. Joseph, KS

12:49 AM CST on December 07, 2019 (GMT -0600)
Rosecrans Memorial

Weather History for KSTJ - October, 2019

Change the Weather History Date:

Saturday, October 5, 2019

  Actual Average Record
Temperature  
Mean Temperature 61 °F 59 °F  
Max Temperature 74 °F 72 °F 96 °F (1963)
Min Temperature 48 °F 46 °F 28 °F (2012)
Degree Days  
Heating Degree Days 4 8  
Month to date heating degree days 25 35  
Since 1 July heating degree days 30 115  
Cooling Degree Days 0 2  
Month to date cooling degree days 17 10  
Year to date cooling degree days 1466 1209  
Growing Degree Days 12 (Base 50)    
Moisture  
Dew Point 56 °F    
Average Humidity 70    
Maximum Humidity 93    
Minimum Humidity 47    
Precipitation  
Precipitation 0.55 in 0.09 in 1.86 in (1967)
Month to date precipitation 2.31 0.45  
Year to date precipitation 35.91 30.17  
Sea Level Pressure  
Sea Level Pressure 29.94 in    
Wind  
Wind Speed 8 mph (South)    
Max Wind Speed 20 mph    
Max Gust Speed 27 mph    
Visibility 8 miles    
Events Fog , Rain , Thunderstorm    
T = Trace of Precipitation, MM = Missing Value Source: NWS Daily Summary

Daily Weather History Graph

Daily Weather History Graph

Search for Another Location

Airport or City:

Astronomy

Oct. 05, 2019 Rise Set
Actual Time 7:19 AM CDT 6:55 PM CDT
Civil Twilight 6:52 AM CDT 7:22 PM CDT
Nautical Twilight 6:21 AM CDT 7:54 PM CDT
Astronomical Twilight 5:49 AM CDT 8:25 PM CDT
Moon 2:45 PM CDT (10/5) No Moon Set
Length of Visible Light 12h 30m
Length of Day
11h 36m
Waxing Crescent, 50% of the Moon is Illuminated
Oct 5
Waxing Crescent
Oct 13
Full
Oct 21
Last Quarter
Oct 27
New
Nov 4
First Quarter

Hourly Weather History & Observations

Time (CDT) Temp. Dew Point Humidity Pressure Visibility Wind Dir Wind Speed Gust Speed Precip Events Conditions
12:05 AM 57.0 °F 48.9 °F 74% 30.07 in 10.0 mi SE 9.2 mph - N/A   Mostly Cloudy
12:53 AM 57.9 °F 50.0 °F 75% 30.06 in 10.0 mi SE 6.9 mph - N/A   Overcast
1:28 AM 57.9 °F 50.0 °F 75% 30.06 in 10.0 mi SE 6.9 mph - N/A   Overcast
1:53 AM 59.0 °F 50.0 °F 72% 30.04 in 10.0 mi SSE 8.1 mph - N/A   Overcast
2:53 AM 60.1 °F 50.0 °F 69% 30.05 in 10.0 mi SSE 5.8 mph 17.3 mph N/A   Overcast
3:53 AM 59.0 °F 50.0 °F 72% 30.01 in 10.0 mi SSE 10.4 mph - N/A   Overcast
4:53 AM 59.0 °F 50.0 °F 72% 29.97 in 10.0 mi SSE 11.5 mph 20.7 mph N/A   Mostly Cloudy
5:53 AM 60.1 °F 50.0 °F 69% 29.96 in 10.0 mi South 9.2 mph 25.3 mph 0.00 in   Mostly Cloudy
6:53 AM 59.0 °F 51.1 °F 75% 29.92 in 10.0 mi SSE 11.5 mph - N/A   Mostly Cloudy
7:53 AM 62.1 °F 53.1 °F 72% 29.91 in 10.0 mi South 12.7 mph 27.6 mph 0.00 in Rain Light Rain
8:14 AM 63.0 °F 53.1 °F 70% 29.93 in 10.0 mi South 12.7 mph - 0.00 in   Mostly Cloudy
8:45 AM 62.1 °F 54.0 °F 75% 29.90 in 10.0 mi South 15.0 mph 24.2 mph 0.00 in Rain Light Rain
8:53 AM 61.0 °F 55.0 °F 81% 29.88 in 9.0 mi SSE 13.8 mph 23.0 mph 0.01 in Rain Light Rain
9:43 AM 61.0 °F 57.0 °F 87% 29.91 in 10.0 mi South 8.1 mph - 0.02 in Rain , Thunderstorm Light Rain
9:50 AM 60.8 °F 57.2 °F 88% 29.91 in 2.5 mi South 8.1 mph - 0.06 in Rain , Thunderstorm Heavy Thunderstorms and Rain
9:53 AM 60.1 °F 57.0 °F 90% 29.91 in 2.5 mi South 9.2 mph - 0.06 in Rain , Thunderstorm Light Thunderstorms and Rain
10:15 AM 60.1 °F 57.0 °F 90% 29.91 in 5.0 mi South 12.7 mph - 0.02 in Rain , Thunderstorm Light Rain
10:26 AM 60.1 °F 57.9 °F 93% 29.91 in 5.0 mi South 9.2 mph - 0.03 in Rain , Thunderstorm Light Thunderstorms and Rain
10:44 AM 61.0 °F 59.0 °F 93% 29.91 in 5.0 mi South 4.6 mph - 0.06 in Rain , Thunderstorm Thunderstorms and Rain
10:53 AM 61.0 °F 59.0 °F 93% 29.89 in 4.0 mi South 8.1 mph - 0.09 in Rain , Thunderstorm Light Rain
10:59 AM 62.1 °F 60.1 °F 93% 29.90 in 10.0 mi SSW 8.1 mph - 0.00 in Rain Light Rain
11:07 AM 63.0 °F 61.0 °F 93% 29.90 in 10.0 mi SSW 10.4 mph - 0.00 in Thunderstorm Overcast
11:13 AM 63.0 °F 61.0 °F 93% 29.92 in 1.8 mi SSW 11.5 mph - 0.09 in Rain , Thunderstorm Light Thunderstorms and Rain
11:16 AM 63.0 °F 61.0 °F 93% 29.91 in 0.5 mi South 13.8 mph 20.7 mph 0.28 in Fog , Rain , Thunderstorm Heavy Thunderstorms and Rain
11:24 AM 63.0 °F 62.1 °F 97% 29.90 in 0.5 mi South 10.4 mph 20.7 mph 0.38 in Fog , Rain , Thunderstorm Thunderstorms and Rain
11:26 AM 64.0 °F 62.1 °F 93% 29.90 in 1.0 mi SSW 11.5 mph - 0.39 in Rain , Thunderstorm Light Thunderstorms and Rain
11:29 AM 64.0 °F 62.1 °F 93% 29.90 in 3.0 mi South 10.4 mph - 0.39 in Rain , Thunderstorm Light Thunderstorms and Rain
11:43 AM 64.0 °F 62.1 °F 93% 29.91 in 10.0 mi South 11.5 mph - 0.39 in Thunderstorm Overcast
11:53 AM 64.0 °F 62.1 °F 93% 29.89 in 10.0 mi South 11.5 mph - 0.39 in   Overcast
12:00 PM 64.0 °F 62.1 °F 93% 29.90 in 10.0 mi South 9.2 mph - N/A   Overcast
12:33 PM 64.0 °F 62.1 °F 93% 29.90 in 10.0 mi South 9.2 mph - N/A   Overcast
12:53 PM 64.0 °F 63.0 °F 96% 29.89 in 8.0 mi South 9.2 mph - 0.00 in Rain Light Rain
1:39 PM 66.9 °F 64.9 °F 93% 29.90 in 10.0 mi SSW 6.9 mph - 0.00 in   Overcast
1:53 PM 68.0 °F 64.9 °F 90% 29.88 in 10.0 mi South 5.8 mph - 0.00 in   Mostly Cloudy
2:35 PM 70.0 °F 66.0 °F 87% 29.89 in 10.0 mi WNW 5.8 mph - N/A   Mostly Cloudy
2:48 PM 71.6 °F 60.8 °F 69% 29.89 in 9.0 mi NW 12.7 mph 20.7 mph N/A   Overcast
2:53 PM 71.1 °F 59.0 °F 66% 29.88 in 10.0 mi NW 10.4 mph 20.7 mph N/A   Overcast
3:53 PM 73.9 °F 55.0 °F 52% 29.87 in 10.0 mi NW 10.4 mph 19.6 mph N/A   Partly Cloudy
4:53 PM 72.0 °F 50.0 °F 46% 29.89 in 10.0 mi NW 13.8 mph 21.9 mph N/A   Clear
5:53 PM 69.1 °F 48.9 °F 49% 29.91 in 10.0 mi NW 12.7 mph 20.7 mph N/A   Clear
6:53 PM 64.0 °F 48.9 °F 58% 29.94 in 10.0 mi NW 9.2 mph - N/A   Clear
7:53 PM 60.1 °F 46.9 °F 62% 29.98 in 10.0 mi NNW 6.9 mph - N/A   Clear
8:53 PM 55.9 °F 46.9 °F 72% 30.01 in 10.0 mi Calm Calm - N/A   Clear
9:53 PM 51.1 °F 48.0 °F 89% 30.04 in 10.0 mi Calm Calm - N/A   Clear
10:53 PM 51.1 °F 48.0 °F 89% 30.05 in 10.0 mi Calm Calm - N/A   Clear
11:53 PM 48.9 °F 46.0 °F 90% 30.05 in 10.0 mi Calm Calm - N/A   Clear